Wind_Speed
27 22 18 18 21 25 28 33 36 38 37 39 40 43 41 40 41 42 43 42 45 50 51 51 52 55 55 55 58 58 57 56 56 55 50 50 46 47 46 46 48 48 46 48 49 52 53 51 51
21 18 15 13 15 18 21 24 26 30 32 33 35 37 39 39 37 38 41 42 44 42 40 42 43 50 53 51 46 44 47 52 53 50 53 51 48 49 50 49 49 50 51 53 55 55 56 54 52
19 19 15 12 11 12 15 17 20 23 25 29 32 34 35 35 37 37 36 37 38 42 44 44 43 39 41 44 49 51 47 47 47 46 47 50 53 54 53 52 52 52 52 50 51 52 54 54 52
19 19 16 13 11 12 12 14 13 16 20 22 26 28 30 30 30 34 37 39 39 38 35 40 41 41 44 42 40 41 44 47 49 51 52 54 55 54 54 55 52 50 51 52 53 53 52 52 52
20 19 17 15 12 12 12 15 17 14 15 17 18 22 23 29 31 33 38 38 37 36 40 42 39 42 40 41 42 45 48 51 54 55 56 58 59 59 57 56 54 54 54 55 54 55 52 52 53
21 20 19 18 16 15 17 17 18 19 18 18 19 18 21 25 31 32 36 38 37 34 33 39 35 36 39 42 44 47 52 55 58 61 64 64 61 61 62 60 58 59 59 57 57 58 56 55 54
21 20 20 20 18 16 20 22 20 17 19 21 21 21 20 26 30 32 34 36 38 41 40 40 41 42 44 46 46 47 50 54 55 59 59 60 61 61 58 59 59 55 52 56 53 48 54 54 53
20 21 21 21 22 22 23 23 24 24 23 21 23 26 26 27 29 32 37 38 37 39 42 43 44 43 44 48 47 50 52 54 52 52 55 56 60 59 60 58 59 58 58 51 52 51 50 51 48
21 22 21 22 23 25 26 24 23 23 24 25 26 27 30 30 33 34 37 38 41 43 45 46 48 48 49 47 50 52 55 57 54 54 56 59 58 57 61 63 61 58 56 56 58 58 57 59 57
22 23 24 24 23 25 26 26 28 29 28 28 29 30 31 33 35 37 38 40 42 42 44 46 47 49 51 49 53 56 58 62 63 63 60 61 59 61 63 64 64 61 63 64 58 59 63 62 59
18 20 21 22 20 21 23 23 24 26 25 25 27 28 28 30 33 35 36 38 40 43 43 44 46 47 45 46 47 52 60 61 62 63 63 64 65 64 65 62 66 69 70 72 69 64 67 65 67
12 13 14 15 17 17 19 19 20 23 24 25 28 27 28 28 29 34 36 39 37 39 38 40 40 43 45 43 45 51 57 64 65 67 68 65 66 67 69 70 70 69 69 73 75 73 72 74 75
11 11 11 11 11 12 16 18 21 23 24 25 28 30 32 31 33 39 41 41 42 42 44 46 48 49 51 51 52 55 58 62 64 67 67 70 69 69 73 73 75 77 76 77 79 79 79 81 83
11 11 12 12 12 14 17 19 22 24 25 25 27 28 31 34 37 40 43 46 51 54 55 56 57 58 60 60 62 63 65 66 66 67 69 71 72 74 73 77 78 80 84 84 84 82 81 84 86
12 13 15 15 16 18 22 23 24 24 23 24 28 34 36 41 45 48 51 53 56 58 60 61 61 63 64 65 66 67 68 70 71 73 75 77 78 80 80 79 79 81 83 82 89 92 90 91 89
13 15 18 20 22 24 25 24 26 27 29 32 35 40 44 47 50 51 53 55 59 61 63 63 65 65 66 66 66 67 67 68 70 71 73 75 77 79 80 82 85 85 85 87 88 92 92 94 92
18 20 21 22 24 24 26 28 29 32 34 39 44 48 49 52 54 55 56 56 56 56 57 59 59 58 57 56 57 57 58 58 59 61 64 64 66 69 73 76 81 84 88 88 91 94 91 92 96
20 21 23 25 25 26 26 30 33 37 41 45 47 49 53 54 54 54 51 50 50 50 52 52 54 55 57 58 60 62 63 65 67 69 71 75 77 78 79 78 80 84 87 89 89 90 92 93 95
24 24 25 25 26 27 28 31 36 40 44 48 50 54 55 56 55 53 51 50 52 54 56 57 59 61 63 65 67 70 73 74 77 79 80 83 85 86 87 88 89 92 94 95 96 95 96 99 101
25 26 26 25 26 28 31 35 39 44 47 51 55 57 58 57 55 53 52 53 55 58 61 63 65 66 69 71 73 76 78 80 82 84 86 88 91 93 95 97 97 99 99 101 102 102 101 103 105
28 28 27 28 28 33 36 39 42 46 50 54 58 60 59 58 55 54 55 56 61 64 65 67 68 70 73 76 79 81 84 87 89 92 94 95 96 98 99 100 101 102 103 104 106 107 103 105 107
28 29 29 30 32 36 40 43 46 49 54 57 59 59 57 57 57 59 63 65 67 70 72 74 75 77 80 83 85 87 90 93 95 95 95 94 91 91 91 91 93 94 95 96 97 99 97 97 99
32 32 33 35 38 41 43 49 51 56 58 62 62 62 62 63 65 68 70 73 76 78 81 83 83 84 86 87 88 89 89 89 88 87 87 87 87 87 87 87 87 87 87 87 87 87 86 87 88
33 35 36 40 42 45 48 51 54 59 62 63 65 65 67 68 69 71 74 77 80 82 84 86 86 86 85 84 83 83 85 85 84 82 81 79 78 77 77 76 77 75 75 75 75 75 75 75 75
38 37 40 42 45 47 50 53 57 62 65 65 67 69 70 71 75 81 83 82 82 83 80 78 78 78 79 80 80 78 77 75 73 70 69 67 64 62 63 63 64 66 66 67 67 67 67 67 68
40 43 44 45 48 53 53 59 62 64 66 69 70 72 74 77 82 82 83 82 79 78 77 75 72 70 69 68 68 66 64 61 61 59 59 59 57 56 55 54 54 56 58 59 59 60 61 62 64
47 46 47 49 51 54 59 61 66 68 69 72 75 78 82 83 83 81 79 77 73 70 66 63 61 61 60 57 56 56 55 52 51 53 52 53 52 52 53 52 52 53 54 54 56 56 56 57 55
49 49 50 52 53 58 61 65 69 71 74 77 80 84 85 83 80 78 74 69 66 64 60 56 55 53 52 52 49 46 44 45 45 47 48 50 51 51 49 46 43 42 42 42 42 42 41 40 39
49 49 52 54 58 62 65 69 73 76 78 81 85 85 82 79 76 72 67 63 62 56 51 49 47 48 46 42 41 41 40 42 44 46 46 44 41 36 32 30 30 29 28 26 26 26 26 25 23
52 54 56 59 61 65 68 71 76 79 82 84 85 82 79 75 72 66 61 58 53 48 44 43 42 39 38 39 38 40 40 40 37 34 31 29 30 30 27 24 22 19 18 17 16 15 14 12 9
Wind_Direction
298 305 301 286 276 266 257 254 252 250 250 250 251 251 249 249 250 249 248 250 252 252 254 255 257 261 267 266 267 270 271 273 272 272 268 272 269 268 266 267 268 268 265 267 264 265 266 266 266
310 316 318 300 284 272 262 257 254 250 249 252 254 255 254 252 251 252 253 249 249 252 252 255 259 259 260 263 266 272 275 275 274 273 272 270 268 265 263 262 262 262 262 262 265 266 265 266 266
311 314 318 311 305 300 284 272 265 258 257 254 254 256 256 256 249 247 243 247 249 252 253 254 258 261 262 262 266 266 265 266 268 268 269 267 265 264 262 259 258 257 258 261 263 264 264 265 266
307 309 307 308 308 308 299 299 286 281 268 267 268 264 261 258 257 255 252 250 246 246 250 252 256 256 257 259 262 265 268 270 272 272 271 271 269 266 263 262 261 259 260 259 258 260 263 263 262
305 306 300 303 295 298 301 297 297 259 266 268 269 261 261 254 254 253 254 252 253 249 251 254 251 255 264 267 270 272 273 272 271 270 270 270 268 268 265 263 261 261 261 262 262 263 264 263 262
300 305 301 295 293 294 288 283 283 271 274 285 273 272 271 268 253 259 260 260 261 262 258 252 260 264 269 272 274 275 276 273 271 269 270 268 267 268 267 265 265 264 261 261 262 264 266 266 264
298 298 298 297 292 293 295 279 278 282 276 271 276 271 271 269 260 258 263 262 265 266 269 269 270 270 272 272 273 275 274 273 272 271 271 269 268 269 270 269 267 267 269 270 267 273 270 270 267
295 288 288 289 289 285 286 286 280 279 275 273 276 274 271 268 267 264 261 260 259 260 262 264 266 268 274 278 276 272 274 274 273 273 268 267 267 265 268 267 268 267 266 269 267 267 270 268 272
283 283 283 279 274 272 275 281 284 283 287 290 291 286 282 276 273 270 267 266 265 262 262 263 264 270 272 274 272 269 267 268 271 272 269 265 266 267 266 265 266 266 266 268 266 265 268 271 272
283 276 270 272 276 280 283 285 286 289 290 293 294 287 284 283 279 276 273 272 270 268 267 266 266 269 270 270 269 267 270 267 268 271 270 266 268 268 269 269 270 267 263 264 264 267 264 265 270
282 275 277 280 282 284 286 287 288 290 292 291 287 286 285 283 286 285 282 278 277 279 275 274 277 275 274 271 267 266 264 266 267 267 267 269 268 271 272 269 268 267 268 266 262 261 263 262 263
293 288 282 283 280 281 286 287 288 288 292 293 292 294 295 295 291 292 288 291 292 292 286 284 279 277 276 272 268 268 268 267 267 271 270 270 272 273 273 273 272 272 271 267 266 264 263 263 260
289 293 294 287 284 290 292 296 293 293 293 293 291 294 293 291 291 293 294 294 289 286 281 282 281 280 279 276 272 269 267 266 265 266 267 270 272 270 267 266 270 271 270 270 269 267 267 267 266
312 315 311 312 307 301 297 294 285 281 281 280 281 290 288 292 291 289 288 287 287 286 285 284 282 282 281 279 278 276 275 272 270 269 268 268 269 270 268 269 271 270 270 268 266 268 268 269 269
313 312 313 311 306 304 300 292 283 280 284 287 289 293 296 296 294 292 289 288 286 286 285 283 283 282 280 279 278 276 275 274 273 271 271 271 270 269 268 269 270 269 268 269 269 268 268 268 267
311 315 319 316 310 301 296 293 293 295 298 297 296 297 296 296 295 293 292 289 287 287 286 284 282 281 281 280 278 277 276 275 274 273 273 274 274 274 273 272 270 270 270 269 267 269 268 268 271
317 314 309 303 295 291 293 297 299 300 301 301 300 301 302 302 300 298 294 292 291 290 287 284 282 281 279 279 280 281 281 280 279 279 278 277 276 276 275 275 275 273 273 272 271 271 270 270 267
307 305 301 294 289 289 289 293 300 303 303 301 303 304 306 305 302 299 297 295 293 291 290 288 286 285 285 284 283 282 280 279 279 279 279 279 279 278 278 274 273 272 271 270 269 269 270 270 270
306 300 296 297 294 291 296 304 303 304 307 308 308 308 307 305 302 298 295 296 297 296 294 291 287 285 284 284 283 281 280 280 279 279 278 278 278 277 276 276 275 275 274 273 272 270 271 272 273
308 303 300 300 304 307 303 305 309 312 311 311 310 310 309 307 305 300 295 294 294 295 294 292 289 287 285 284 283 282 282 281 281 281 280 280 279 278 278 276 275 274 273 272 272 271 270 270 271
312 309 310 309 309 308 308 310 313 314 313 313 311 310 310 309 305 300 298 295 295 295 293 292 290 288 287 286 285 284 284 284 283 283 282 280 279 279 278 277 276 275 273 273 273 273 272 271 272
316 313 311 308 306 305 305 307 311 313 314 315 312 311 309 307 307 305 304 301 299 299 299 297 294 291 289 288 286 286 285 285 285 284 284 284 282 281 280 279 278 278 277 276 275 275 275 275 274
317 313 310 306 305 305 309 311 315 314 314 314 314 314 313 311 310 307 305 303 302 300 297 296 295 293 291 290 288 287 286 285 285 284 284 283 283 282 281 280 279 278 278 278 277 277 277 277 277
311 311 312 309 308 306 306 309 313 314 315 315 314 314 312 309 306 304 301 300 298 296 294 293 292 291 290 289 288 287 286 286 286 285 284 284 283 282 281 280 279 279 277 276 276 276 276 276 276
313 310 310 310 310 308 310 312 312 314 314 314 312 311 309 307 307 306 304 302 300 299 297 295 293 292 291 289 288 288 288 287 287 287 285 284 283 281 279 279 278 277 275 274 274 274 275 275 275
313 314 314 314 313 310 313 312 313 314 313 312 312 312 310 308 308 305 302 303 302 301 299 297 296 293 293 293 292 291 290 290 291 291 290 288 286 284 283 281 280 279 278 278 277 276 276 275 275
316 312 312 311 309 307 310 312 313 314 314 312 313 313 312 311 309 307 306 306 305 306 304 301 299 298 297 296 295 296 295 295 294 293 291 292 294 294 292 290 287 283 279 277 275 275 275 275 276
312 310 309 309 309 310 311 313 314 315 314 314 315 315 314 312 311 310 309 308 307 306 304 301 300 299 299 300 300 300 299 297 296 296 298 297 295 295 295 294 291 289 285 280 277 275 275 274 274
311 310 311 311 310 312 313 314 315 316 315 316 316 316 315 313 313 313 311 310 309 307 304 302 302 303 305 308 307 306 305 305 303 302 300 300 302 301 301 301 298 295 290 285 281 277 276 276 275
311 311 311 311 311 311 313 313 315 316 317 317 317 317 315 315 316 315 314 313 312 309 307 307 308 312 314 314 314 314 312 310 311 312 313 314 318 318 313 309 305 302 298 290 284 279 276 271 263
Height
10911 10911 10911 10908 10906 10904 10902 10901 10901 10902 10905 10907 10910 10912 10914 10914 10915 10916 10917 10918 10919 10919 10921 10922 10924 10923 10921 10921 10920 10920 10919 10919 10920 10921 10920 10921 10921 10920 10921 10922 10924 10925 10925 10926 10924 10923 10922 10922 10922
10907 10906 10907 10904 10902 10899 10897 10895 10894 10896 10899 10902 10904 10905 10906 10909 10909 10910 10910 10911 10912 10914 10915 10914 10914 10915 10915 10913 10912 10911 10911 10911 10911 10911 10911 10912 10912 10912 10912 10911 10911 10913 10914 10915 10915 10914 10912 10911 10911
10903 10902 10903 10901 10899 10897 10895 10893 10891 10892 10895 10897 10899 10899 10900 10900 10902 10903 10903 10903 10906 10907 10909 10908 10909 10907 10906 10907 10907 10905 10903 10902 10902 10903 10902 10901 10901 10901 10902 10902 10901 10902 10902 10901 10901 10901 10901 10900 10901
10900 10899 10899 10898 10896 10894 10893 10892 10891 10889 10890 10893 10894 10894 10895 10895 10895 10894 10895 10897 10899 10900 10901 10901 10901 10899 10897 10897 10898 10897 10896 10895 10895 10894 10892 10891 10891 10890 10890 10891 10892 10892 10891 10890 10891 10890 10890 10888 10889
10897 10897 10895 10895 10894 10892 10890 10889 10887 10887 10887 10889 10889 10889 10889 10889 10888 10887 10887 10889 10890 10892 10894 10892 10892 10890 10890 10890 10890 10888 10887 10886 10886 10884 10882 10880 10879 10880 10879 10879 10880 10880 10880 10881 10881 10881 10880 10880 10880
10895 10894 10892 10891 10890 10888 10886 10884 10883 10884 10885 10886 10886 10886 10886 10883 10882 10882 10882 10881 10882 10883 10885 10884 10885 10884 10883 10882 10882 10880 10877 10876 10875 10872 10870 10869 10870 10869 10870 10871 10870 10870 10869 10869 10868 10869 10869 10870 10870
10892 10891 10889 10886 10885 10884 10883 10880 10879 10880 10881 10882 10881 10881 10881 10878 10876 10876 10876 10875 10877 10877 10877 10878 10878 10875 10874 10875 10874 10870 10866 10864 10864 10863 10860 10859 10859 10859 10860 10859 10859 10859 10859 10861 10860 10858 10859 10859 10859
10888 10885 10884 10882 10880 10878 10876 10875 10875 10875 10876 10877 10876 10875 10875 10872 10868 10870 10869 10869 10869 10869 10869 10869 10868 10867 10866 10866 10865 10861 10855 10854 10853 10852 10850 10849 10849 10848 10849 10849 10848 10848 10849 10848 10847 10846 10848 10849 10848
10881 10879 10877 10876 10874 10871 10870 10870 10870 10870 10870 10871 10871 10870 10868 10866 10863 10863 10861 10862 10861 10862 10861 10861 10860 10860 10858 10857 10854 10849 10845 10843 10842 10842 10841 10839 10838 10837 10837 10836 10836 10836 10835 10834 10834 10834 10835 10837 10836
10878 10875 10871 10870 10869 10867 10867 10867 10867 10866 10866 10865 10864 10861 10860 10858 10856 10854 10854 10853 10852 10852 10852 10850 10850 10849 10849 10847 10842 10837 10833 10832 10831 10829 10829 10828 10827 10826 10825 10824 10822 10823 10821 10822 10821 10821 10822 10821 10821
10872 10871 10869 10868 10867 10865 10864 10864 10862 10860 10860 10859 10856 10854 10854 10852 10850 10848 10846 10845 10844 10842 10841 10841 10841 10839 10838 10837 10832 10829 10819 10819 10818 10816 10816 10814 10813 10811 10811 10810 10809 10808 10807 10807 10807 10807 10807 10806 10806
10869 10868 10868 10866 10864 10862 10860 10860 10858 10857 10856 10854 10852 10851 10849 10847 10846 10842 10840 10838 10835 10832 10831 10829 10828 10825 10824 10822 10822 10815 10810 10806 10804 10801 10800 10799 10796 10795 10794 10793 10792 10790 10790 10791 10789 10790 10789 10788 10787
10866 10866 10865 10864 10862 10860 10858 10857 10855 10854 10853 10850 10849 10847 10844 10841 10839 10835 10832 10830 10825 10822 10820 10817 10814 10812 10809 10806 10804 10801 10797 10792 10790 10788 10785 10782 10781 10779 10778 10774 10775 10773 10771 10773 10771 10771 10772 10770 10770
10866 10865 10864 10862 10860 10857 10856 10854 10852 10851 10850 10850 10847 10844 10839 10837 10833 10829 10825 10821 10815 10810 10807 10804 10801 10798 10794 10791 10786 10783 10779 10776 10774 10772 10769 10766 10765 10762 10759 10757 10756 10754 10752 10751 10750 10750 10751 10751 10750
10864 10862 10860 10859 10856 10853 10852 10850 10847 10845 10844 10843 10840 10836 10833 10829 10825 10821 10816 10811 10804 10797 10792 10789 10785 10779 10776 10773 10769 10766 10762 10759 10756 10754 10750 10748 10744 10742 10740 10739 10737 10734 10730 10729 10725 10726 10731 10730 10730
10862 10860 10857 10854 10851 10849 10846 10843 10841 10839 10838 10835 10832 10828 10824 10821 10815 10809 10803 10797 10790 10784 10779 10774 10768 10764 10758 10753 10750 10746 10743 10739 10736 10733 10730 10726 10723 10721 10719 10716 10712 10712 10708 10707 10705 10701 10709 10710 10709
10858 10856 10854 10851 10848 10845 10841 10839 10837 10833 10829 10827 10823 10818 10812 10806 10800 10794 10787 10781 10775 10769 10762 10756 10751 10747 10741 10738 10734 10731 10726 10722 10718 10713 10710 10708 10705 10702 10699 10696 10692 10686 10684 10684 10682 10680 10681 10684 10684
10856 10852 10849 10847 10844 10841 10838 10835 10831 10826 10822 10818 10812 10806 10799 10793 10786 10778 10771 10765 10760 10754 10747 10742 10736 10731 10727 10723 10719 10714 10709 10705 10701 10698 10694 10689 10686 10683 10680 10678 10673 10667 10662 10661 10660 10658 10656 10655 10655
10850 10848 10845 10842 10838 10835 10832 10829 10825 10820 10813 10807 10801 10794 10788 10780 10773 10766 10759 10753 10746 10740 10734 10728 10723 10717 10712 10708 10702 10696 10691 10688 10682 10678 10675 10670 10666 10662 10658 10654 10650 10642 10639 10635 10633 10633 10633 10627 10624
10844 10840 10838 10835 10832 10829 10826 10823 10817 10811 10804 10796 10789 10781 10773 10767 10759 10752 10745 10739 10732 10726 10719 10713 10706 10701 10694 10689 10683 10677 10671 10666 10661 10656 10651 10648 10641 10637 10631 10626 10624 10617 10614 10607 10605 10604 10609 10602 10597
10838 10834 10832 10829 10826 10821 10817 10813 10809 10802 10795 10788 10778 10769 10760 10752 10746 10739 10732 10726 10718 10711 10703 10697 10690 10683 10675 10667 10661 10654 10648 10640 10635 10629 10624 10621 10615 10608 10603 10596 10592 10587 10583 10579 10572 10568 10575 10570 10566
10834 10830 10828 10824 10820 10816 10810 10805 10801 10795 10785 10777 10767 10758 10751 10741 10732 10725 10716 10707 10699 10691 10683 10675 10668 10660 10653 10646 10638 10630 10621 10613 10607 10601 10594 10586 10583 10575 10570 10566 10559 10554 10551 10546 10542 10538 10539 10539 10534
10828 10824 10821 10817 10812 10806 10802 10793 10789 10781 10775 10764 10755 10747 10736 10727 10719 10709 10699 10690 10680 10672 10662 10653 10645 10636 10627 10619 10610 10603 10595 10588 10580 10573 10567 10562 10555 10549 10545 10539 10531 10527 10522 10520 10516 10513 10513 10510 10505
10823 10818 10814 10808 10803 10798 10792 10787 10779 10770 10761 10752 10740 10732 10723 10714 10706 10696 10687 10677 10666 10655 10644 10633 10623 10614 10605 10595 10586 10578 10568 10562 10555 10548 10543 10537 10529 10524 10519 10514 10507 10504 10501 10498 10496 10493 10492 10489 10487
10815 10812 10806 10801 10794 10788 10782 10776 10768 10757 10748 10741 10731 10721 10711 10701 10690 10675 10663 10654 10643 10630 10621 10609 10600 10590 10581 10572 10563 10555 10547 10539 10532 10524 10519 10514 10509 10504 10500 10494 10489 10483 10480 10477 10477 10475 10472 10470 10467
10809 10802 10797 10792 10784 10774 10772 10761 10754 10747 10736 10724 10716 10708 10696 10684 10671 10658 10643 10629 10619 10607 10597 10586 10576 10567 10558 10549 10541 10534 10527 10521 10513 10504 10497 10493 10488 10484 10480 10476 10471 10466 10462 10459 10458 10455 10453 10451 10446
10799 10795 10789 10783 10776 10768 10759 10753 10739 10732 10722 10710 10698 10687 10674 10660 10647 10634 10621 10608 10597 10585 10577 10567 10558 10548 10541 10532 10524 10518 10511 10503 10497 10489 10481 10474 10469 10464 10459 10455 10450 10446 10441 10440 10438 10435 10435 10431 10430
10792 10786 10781 10775 10767 10757 10749 10737 10726 10717 10706 10694 10682 10668 10653 10639 10626 10614 10601 10591 10580 10571 10561 10552 10544 10535 10527 10520 10512 10505 10497 10489 10482 10474 10468 10461 10454 10448 10442 10436 10430 10426 10422 10420 10419 10418 10417 10417 10416
10784 10778 10770 10761 10753 10744 10736 10723 10711 10701 10690 10678 10663 10650 10636 10622 10609 10596 10585 10574 10564 10555 10546 10538 10530 10522 10515 10508 10499 10491 10484 10477 10470 10462 10454 10447 10440 10434 10429 10424 10418 10414 10410 10408 10407 10407 10407 10407 10406
10772 10765 10758 10751 10742 10733 10723 10711 10698 10686 10673 10658 10645 10631 10618 10604 10592 10580 10569 10560 10549 10540 10532 10525 10519 10512 10504 10496 10489 10482 10473 10466 10458 10451 10444 10437 10430 10425 10420 10416 10412 10409 10406 10403 10401 10400 10399 10399 10399